LOCATION_NAME,SAMPLE COLLECTION TIME,DOSE EQUIVALENT RATE (nSv/h),GAMMA COUNT RATE R02 (CPM),GAMMA COUNT RATE R03 (CPM),GAMMA COUNT RATE R04 (CPM),GAMMA COUNT RATE R05 (CPM),GAMMA COUNT RATE R06 (CPM),GAMMA COUNT RATE R07 (CPM),GAMMA COUNT RATE R08 (CPM),GAMMA COUNT RATE R09 (CPM),STATUS
NM: NAVAJO LAKE,02/08/2021 21:04:00,,3184.00,1923.00,563.00,298.00,183.00,218.00,134.00,59.00,APPROVED
NM: NAVAJO LAKE,02/08/2021 22:04:00,,3174.00,1913.00,559.00,298.00,185.00,218.00,135.00,59.00,APPROVED
NM: NAVAJO LAKE,02/08/2021 23:04:00,,3195.00,1912.00,561.00,302.00,185.00,221.00,135.00,58.00,APPROVED
NM: NAVAJO LAKE,02/09/2021 00:04:00,,3231.00,1932.00,559.00,290.00,183.00,216.00,131.00,57.00,APPROVED
NM: NAVAJO LAKE,02/09/2021 01:05:00,,3265.00,1944.00,562.00,288.00,185.00,216.00,127.00,56.00,APPROVED
NM: NAVAJO LAKE,02/09/2021 02:05:00,,3339.00,1944.00,566.00,284.00,185.00,214.00,122.00,58.00,APPROVED
NM: NAVAJO LAKE,02/09/2021 03:05:00,,3368.00,1933.00,563.00,282.00,181.00,217.00,112.00,56.00,APPROVED
NM: NAVAJO LAKE,02/09/2021 04:05:00,,3386.00,1997.00,566.00,292.00,187.00,212.00,125.00,56.00,APPROVED
NM: NAVAJO LAKE,02/09/2021 05:05:00,,3414.00,2029.00,570.00,300.00,189.00,221.00,134.00,57.00,APPROVED
NM: NAVAJO LAKE,02/09/2021 06:06:00,,3449.00,2060.00,576.00,302.00,185.00,221.00,137.00,58.00,APPROVED
NM: NAVAJO LAKE,02/09/2021 07:06:00,,3495.00,2097.00,580.00,309.00,191.00,226.00,137.00,59.00,APPROVED
NM: NAVAJO LAKE,02/09/2021 08:06:00,,3541.00,2143.00,596.00,314.00,196.00,227.00,139.00,61.00,APPROVED
NM: NAVAJO LAKE,02/09/2021 09:06:00,,3568.00,2144.00,595.00,309.00,192.00,227.00,131.00,58.00,APPROVED
NM: NAVAJO LAKE,02/09/2021 10:06:00,,3583.00,2085.00,591.00,295.00,189.00,225.00,117.00,59.00,APPROVED
NM: NAVAJO LAKE,02/09/2021 11:07:00,,3597.00,2116.00,598.00,304.00,189.00,228.00,120.00,57.00,APPROVED
NM: NAVAJO LAKE,02/09/2021 12:07:00,,3614.00,2108.00,600.00,301.00,192.00,228.00,123.00,58.00,APPROVED
NM: NAVAJO LAKE,02/09/2021 13:07:00,,3562.00,2139.00,592.00,312.00,195.00,227.00,135.00,59.00,APPROVED
NM: NAVAJO LAKE,02/09/2021 14:07:00,,3620.00,2175.00,599.00,316.00,199.00,230.00,136.00,58.00,APPROVED
NM: NAVAJO LAKE,02/09/2021 15:07:00,,3618.00,2199.00,608.00,321.00,193.00,232.00,137.00,58.00,APPROVED
NM: NAVAJO LAKE,02/09/2021 16:08:00,,3641.00,2174.00,607.00,308.00,193.00,234.00,127.00,58.00,APPROVED
NM: NAVAJO LAKE,02/09/2021 17:08:00,,3633.00,2128.00,606.00,297.00,195.00,232.00,115.00,58.00,APPROVED
NM: NAVAJO LAKE,02/09/2021 18:08:00,,3490.00,2031.00,595.00,288.00,190.00,231.00,112.00,57.00,APPROVED
NM: NAVAJO LAKE,02/09/2021 19:08:00,,3305.00,1908.00,570.00,279.00,184.00,225.00,106.00,58.00,APPROVED
NM: NAVAJO LAKE,02/09/2021 20:08:00,,3165.00,1836.00,552.00,272.00,180.00,223.00,101.00,55.00,APPROVED
NM: NAVAJO LAKE,02/09/2021 21:04:00,,3156.00,1815.00,549.00,267.00,179.00,218.00,101.00,56.00,APPROVED
NM: NAVAJO LAKE,02/09/2021 22:05:00,,3169.00,1831.00,552.00,271.00,181.00,219.00,107.00,55.00,APPROVED
NM: NAVAJO LAKE,02/09/2021 23:05:00,,3195.00,1832.00,549.00,267.00,177.00,216.00,101.00,56.00,APPROVED
NM: NAVAJO LAKE,02/10/2021 00:05:00,,3213.00,1840.00,547.00,269.00,178.00,217.00,102.00,55.00,APPROVED
NM: NAVAJO LAKE,02/10/2021 01:05:00,,3282.00,1933.00,559.00,285.00,182.00,214.00,126.00,57.00,APPROVED
NM: NAVAJO LAKE,02/10/2021 02:05:00,,3292.00,1968.00,559.00,292.00,185.00,222.00,131.00,57.00,APPROVED
NM: NAVAJO LAKE,02/10/2021 03:06:00,,3327.00,1948.00,558.00,287.00,182.00,213.00,124.00,56.00,APPROVED
NM: NAVAJO LAKE,02/10/2021 04:06:00,,3340.00,1955.00,557.00,279.00,183.00,213.00,117.00,54.00,APPROVED
NM: NAVAJO LAKE,02/10/2021 05:06:00,,3373.00,1946.00,560.00,281.00,181.00,213.00,116.00,56.00,APPROVED
NM: NAVAJO LAKE,02/10/2021 06:06:00,,3390.00,1931.00,560.00,273.00,180.00,216.00,108.00,55.00,APPROVED
NM: NAVAJO LAKE,02/10/2021 07:06:00,,3380.00,1932.00,555.00,273.00,180.00,218.00,109.00,55.00,APPROVED
NM: NAVAJO LAKE,02/10/2021 08:07:00,,3387.00,1932.00,557.00,279.00,182.00,212.00,112.00,55.00,APPROVED
NM: NAVAJO LAKE,02/10/2021 09:07:00,,3384.00,1957.00,557.00,279.00,184.00,211.00,113.00,55.00,APPROVED
NM: NAVAJO LAKE,02/10/2021 10:07:00,,3395.00,1941.00,553.00,274.00,182.00,215.00,105.00,57.00,APPROVED
NM: NAVAJO LAKE,02/10/2021 11:07:00,,3419.00,1957.00,560.00,279.00,183.00,216.00,111.00,55.00,APPROVED
NM: NAVAJO LAKE,02/10/2021 12:07:00,,3437.00,2005.00,564.00,288.00,187.00,220.00,122.00,57.00,APPROVED
NM: NAVAJO LAKE,02/10/2021 13:08:00,,3497.00,2087.00,580.00,303.00,189.00,224.00,135.00,58.00,APPROVED
NM: NAVAJO LAKE,02/10/2021 14:08:00,,3520.00,2126.00,583.00,311.00,190.00,226.00,134.00,58.00,APPROVED
NM: NAVAJO LAKE,02/10/2021 15:08:00,,3551.00,2139.00,592.00,312.00,193.00,225.00,135.00,59.00,APPROVED
NM: NAVAJO LAKE,02/10/2021 16:08:00,,3536.00,2138.00,588.00,314.00,192.00,228.00,137.00,59.00,APPROVED
NM: NAVAJO LAKE,02/10/2021 17:08:00,,3588.00,2162.00,599.00,320.00,195.00,233.00,138.00,60.00,APPROVED
NM: NAVAJO LAKE,02/10/2021 18:09:00,,3459.00,2074.00,586.00,315.00,192.00,230.00,137.00,57.00,APPROVED
NM: NAVAJO LAKE,02/10/2021 19:09:00,,3343.00,2015.00,569.00,307.00,190.00,224.00,135.00,59.00,APPROVED
NM: NAVAJO LAKE,02/10/2021 20:09:00,,3266.00,1965.00,562.00,293.00,185.00,218.00,136.00,57.00,APPROVED
NM: NAVAJO LAKE,02/10/2021 21:09:00,,3232.00,1945.00,557.00,296.00,189.00,218.00,132.00,59.00,APPROVED
NM: NAVAJO LAKE,02/10/2021 22:09:00,,3283.00,1954.00,559.00,293.00,185.00,218.00,132.00,56.00,APPROVED
NM: NAVAJO LAKE,02/10/2021 23:10:00,,3350.00,1986.00,561.00,296.00,186.00,215.00,132.00,57.00,APPROVED
NM: NAVAJO LAKE,02/11/2021 00:10:00,,3368.00,2008.00,565.00,299.00,187.00,218.00,132.00,57.00,APPROVED
NM: NAVAJO LAKE,02/11/2021 01:10:00,,3369.00,2002.00,565.00,298.00,182.00,221.00,130.00,57.00,APPROVED
NM: NAVAJO LAKE,02/11/2021 02:10:00,,3395.00,1999.00,561.00,296.00,184.00,221.00,131.00,58.00,APPROVED
NM: NAVAJO LAKE,02/11/2021 03:10:00,,3392.00,2014.00,571.00,301.00,190.00,217.00,131.00,57.00,APPROVED
NM: NAVAJO LAKE,02/11/2021 04:11:00,,3406.00,2024.00,562.00,303.00,185.00,220.00,133.00,57.00,APPROVED
NM: NAVAJO LAKE,02/11/2021 05:11:00,,3421.00,2028.00,568.00,298.00,182.00,217.00,130.00,57.00,APPROVED
NM: NAVAJO LAKE,02/11/2021 06:11:00,,3428.00,2032.00,568.00,298.00,187.00,217.00,132.00,56.00,APPROVED
NM: NAVAJO LAKE,02/11/2021 07:11:00,,3433.00,2042.00,563.00,297.00,186.00,220.00,133.00,59.00,APPROVED
NM: NAVAJO LAKE,02/11/2021 08:11:00,,3443.00,2049.00,568.00,297.00,189.00,220.00,133.00,57.00,APPROVED
NM: NAVAJO LAKE,02/11/2021 09:12:00,,3482.00,2079.00,578.00,304.00,190.00,222.00,134.00,60.00,APPROVED
NM: NAVAJO LAKE,02/11/2021 10:12:00,,3508.00,2116.00,586.00,307.00,189.00,224.00,133.00,59.00,APPROVED
NM: NAVAJO LAKE,02/11/2021 11:12:00,,3557.00,2148.00,594.00,312.00,192.00,225.00,135.00,60.00,APPROVED
NM: NAVAJO LAKE,02/11/2021 12:12:00,,3615.00,2184.00,601.00,320.00,194.00,228.00,137.00,59.00,APPROVED
NM: NAVAJO LAKE,02/11/2021 13:12:00,,3635.00,2197.00,610.00,322.00,195.00,230.00,137.00,60.00,APPROVED
NM: NAVAJO LAKE,02/11/2021 14:13:00,,3655.00,2219.00,603.00,321.00,200.00,233.00,137.00,59.00,APPROVED
NM: NAVAJO LAKE,02/11/2021 15:13:00,,3679.00,2228.00,615.00,328.00,199.00,235.00,138.00,59.00,APPROVED
NM: NAVAJO LAKE,02/11/2021 16:13:00,,3651.00,2215.00,610.00,324.00,199.00,235.00,139.00,59.00,APPROVED
NM: NAVAJO LAKE,02/11/2021 17:13:00,,3655.00,2234.00,617.00,325.00,200.00,237.00,142.00,61.00,APPROVED
NM: NAVAJO LAKE,02/11/2021 18:13:00,,3553.00,2159.00,606.00,325.00,198.00,234.00,138.00,60.00,APPROVED
NM: NAVAJO LAKE,02/11/2021 19:14:00,,3345.00,2011.00,577.00,312.00,193.00,229.00,137.00,58.00,APPROVED
NM: NAVAJO LAKE,02/11/2021 20:14:00,,3227.00,1958.00,564.00,299.00,185.00,220.00,134.00,58.00,APPROVED
NM: NAVAJO LAKE,02/11/2021 21:14:00,,3164.00,1908.00,554.00,294.00,184.00,215.00,134.00,58.00,APPROVED
NM: NAVAJO LAKE,02/11/2021 22:14:00,,3142.00,1895.00,555.00,289.00,187.00,217.00,134.00,58.00,APPROVED
NM: NAVAJO LAKE,02/11/2021 23:14:00,,3159.00,1889.00,548.00,293.00,183.00,218.00,134.00,58.00,APPROVED
NM: NAVAJO LAKE,02/12/2021 00:15:00,,3191.00,1909.00,552.00,290.00,186.00,216.00,133.00,55.00,APPROVED
NM: NAVAJO LAKE,02/12/2021 01:15:00,,3297.00,1965.00,558.00,294.00,189.00,215.00,136.00,58.00,APPROVED
NM: NAVAJO LAKE,02/12/2021 02:15:00,,3359.00,2004.00,567.00,303.00,187.00,222.00,133.00,59.00,APPROVED
NM: NAVAJO LAKE,02/12/2021 03:15:00,,3386.00,2027.00,568.00,301.00,186.00,219.00,134.00,58.00,APPROVED
NM: NAVAJO LAKE,02/12/2021 04:15:00,,3396.00,2040.00,565.00,300.00,185.00,220.00,132.00,59.00,APPROVED
NM: NAVAJO LAKE,02/12/2021 05:15:00,,3434.00,2037.00,568.00,301.00,185.00,224.00,137.00,59.00,APPROVED
NM: NAVAJO LAKE,02/12/2021 06:16:00,,3447.00,2054.00,573.00,304.00,188.00,218.00,133.00,58.00,APPROVED
NM: NAVAJO LAKE,02/12/2021 07:16:00,,3490.00,2083.00,575.00,306.00,188.00,224.00,137.00,61.00,APPROVED
NM: NAVAJO LAKE,02/12/2021 08:16:00,,3538.00,2138.00,592.00,315.00,191.00,232.00,135.00,59.00,APPROVED
NM: NAVAJO LAKE,02/12/2021 09:16:00,,3569.00,2163.00,602.00,320.00,197.00,231.00,139.00,60.00,APPROVED
NM: NAVAJO LAKE,02/12/2021 10:16:00,,3662.00,2221.00,609.00,324.00,197.00,234.00,138.00,60.00,APPROVED
NM: NAVAJO LAKE,02/12/2021 11:17:00,,3721.00,2243.00,616.00,327.00,201.00,239.00,140.00,60.00,APPROVED
NM: NAVAJO LAKE,02/12/2021 12:17:00,,3694.00,2249.00,617.00,327.00,200.00,232.00,137.00,60.00,APPROVED
NM: NAVAJO LAKE,02/12/2021 13:17:00,,3637.00,2203.00,607.00,324.00,198.00,230.00,139.00,60.00,APPROVED
NM: NAVAJO LAKE,02/12/2021 14:17:00,,3668.00,2242.00,619.00,334.00,202.00,239.00,139.00,61.00,APPROVED
NM: NAVAJO LAKE,02/12/2021 15:17:00,,3706.00,2281.00,632.00,348.00,204.00,242.00,146.00,61.00,APPROVED
NM: NAVAJO LAKE,02/12/2021 16:18:00,,3597.00,2178.00,603.00,324.00,196.00,231.00,140.00,61.00,APPROVED
NM: NAVAJO LAKE,02/12/2021 17:18:00,,3579.00,2155.00,599.00,320.00,195.00,229.00,137.00,57.00,APPROVED
NM: NAVAJO LAKE,02/12/2021 18:18:00,,3547.00,2125.00,596.00,312.00,197.00,225.00,137.00,59.00,APPROVED
NM: NAVAJO LAKE,02/12/2021 19:18:00,,3501.00,2111.00,595.00,315.00,194.00,230.00,139.00,60.00,APPROVED
NM: NAVAJO LAKE,02/12/2021 20:18:00,,3438.00,2078.00,587.00,313.00,191.00,230.00,138.00,59.00,APPROVED
NM: NAVAJO LAKE,02/12/2021 21:19:00,,3335.00,2018.00,576.00,309.00,190.00,225.00,137.00,59.00,APPROVED
NM: NAVAJO LAKE,02/12/2021 22:19:00,,3228.00,1932.00,558.00,286.00,188.00,217.00,126.00,56.00,APPROVED
NM: NAVAJO LAKE,02/12/2021 23:19:00,,3290.00,1898.00,557.00,280.00,181.00,215.00,109.00,59.00,APPROVED
NM: NAVAJO LAKE,02/13/2021 00:19:00,,3377.00,1991.00,569.00,292.00,189.00,222.00,128.00,57.00,APPROVED
NM: NAVAJO LAKE,02/13/2021 01:19:00,,3389.00,2030.00,571.00,299.00,188.00,224.00,134.00,58.00,APPROVED
NM: NAVAJO LAKE,02/13/2021 02:20:00,,3415.00,2026.00,567.00,300.00,189.00,225.00,132.00,57.00,APPROVED
NM: NAVAJO LAKE,02/13/2021 03:20:00,,3466.00,2056.00,578.00,302.00,191.00,221.00,134.00,58.00,APPROVED
NM: NAVAJO LAKE,02/13/2021 04:20:00,,3459.00,2063.00,571.00,301.00,191.00,222.00,134.00,58.00,APPROVED
NM: NAVAJO LAKE,02/13/2021 05:20:00,,3448.00,2056.00,572.00,304.00,189.00,221.00,132.00,58.00,APPROVED
NM: NAVAJO LAKE,02/13/2021 06:20:00,,3457.00,2070.00,581.00,302.00,185.00,218.00,136.00,60.00,APPROVED
NM: NAVAJO LAKE,02/13/2021 07:21:00,,3495.00,2095.00,580.00,309.00,190.00,224.00,135.00,59.00,APPROVED
NM: NAVAJO LAKE,02/13/2021 08:21:00,,3526.00,2125.00,584.00,312.00,193.00,227.00,134.00,60.00,APPROVED
NM: NAVAJO LAKE,02/13/2021 09:21:00,,3516.00,2112.00,589.00,309.00,196.00,226.00,137.00,60.00,APPROVED
NM: NAVAJO LAKE,02/13/2021 10:21:00,,3526.00,2115.00,591.00,306.00,192.00,226.00,135.00,59.00,APPROVED
NM: NAVAJO LAKE,02/13/2021 11:21:00,,3535.00,2115.00,591.00,311.00,188.00,226.00,135.00,60.00,APPROVED
NM: NAVAJO LAKE,02/13/2021 12:22:00,,3494.00,2102.00,584.00,308.00,186.00,221.00,134.00,61.00,APPROVED
NM: NAVAJO LAKE,02/13/2021 13:22:00,,3520.00,2119.00,588.00,312.00,191.00,226.00,134.00,58.00,APPROVED
NM: NAVAJO LAKE,02/13/2021 14:22:00,,3589.00,2155.00,593.00,315.00,193.00,228.00,135.00,61.00,APPROVED
NM: NAVAJO LAKE,02/13/2021 15:22:00,,3687.00,2240.00,614.00,329.00,202.00,232.00,141.00,59.00,APPROVED
NM: NAVAJO LAKE,02/13/2021 16:22:00,,3682.00,2229.00,622.00,330.00,199.00,236.00,138.00,62.00,APPROVED
NM: NAVAJO LAKE,02/13/2021 17:23:00,,3687.00,2230.00,614.00,330.00,200.00,232.00,142.00,62.00,APPROVED
NM: NAVAJO LAKE,02/13/2021 18:23:00,,3737.00,2250.00,626.00,332.00,203.00,240.00,141.00,62.00,APPROVED
NM: NAVAJO LAKE,02/13/2021 19:23:00,,3640.00,2183.00,599.00,323.00,197.00,235.00,139.00,62.00,APPROVED
NM: NAVAJO LAKE,02/13/2021 20:23:00,,3622.00,2198.00,610.00,331.00,198.00,237.00,143.00,61.00,APPROVED
NM: NAVAJO LAKE,02/13/2021 21:23:00,,3824.00,2397.00,665.00,376.00,216.00,263.00,150.00,66.00,APPROVED
NM: NAVAJO LAKE,02/13/2021 22:24:00,,3588.00,2190.00,619.00,335.00,198.00,238.00,142.00,62.00,APPROVED
NM: NAVAJO LAKE,02/13/2021 23:24:00,,3656.00,2256.00,621.00,346.00,202.00,245.00,145.00,63.00,APPROVED
NM: NAVAJO LAKE,02/14/2021 00:24:00,,3564.00,2186.00,611.00,327.00,197.00,234.00,144.00,62.00,APPROVED
NM: NAVAJO LAKE,02/14/2021 01:24:00,,3666.00,2259.00,627.00,341.00,200.00,243.00,144.00,63.00,APPROVED
NM: NAVAJO LAKE,02/14/2021 02:24:00,,4086.00,2691.00,740.00,432.00,232.00,291.00,164.00,71.00,APPROVED
NM: NAVAJO LAKE,02/14/2021 03:25:00,,3806.00,2394.00,675.00,381.00,214.00,265.00,153.00,67.00,APPROVED
NM: NAVAJO LAKE,02/14/2021 04:25:00,,3508.00,2108.00,593.00,321.00,192.00,229.00,135.00,61.00,APPROVED
NM: NAVAJO LAKE,02/14/2021 05:25:00,,3618.00,2222.00,625.00,339.00,201.00,238.00,141.00,63.00,APPROVED
NM: NAVAJO LAKE,02/14/2021 06:25:00,,3750.00,2349.00,651.00,366.00,208.00,253.00,145.00,64.00,APPROVED
NM: NAVAJO LAKE,02/14/2021 07:25:00,,3526.00,2138.00,600.00,322.00,193.00,232.00,131.00,59.00,APPROVED
NM: NAVAJO LAKE,02/14/2021 08:26:00,,3485.00,2099.00,584.00,318.00,188.00,227.00,134.00,60.00,APPROVED
NM: NAVAJO LAKE,02/14/2021 09:26:00,,3687.00,2297.00,642.00,350.00,200.00,246.00,142.00,62.00,APPROVED
NM: NAVAJO LAKE,02/14/2021 10:26:00,,3896.00,2475.00,692.00,392.00,217.00,270.00,155.00,68.00,APPROVED
NM: NAVAJO LAKE,02/14/2021 11:26:00,,3744.00,2329.00,649.00,364.00,205.00,248.00,142.00,63.00,APPROVED
NM: NAVAJO LAKE,02/14/2021 12:26:00,,3963.00,2522.00,686.00,386.00,215.00,266.00,148.00,66.00,APPROVED
NM: NAVAJO LAKE,02/14/2021 13:27:00,,4440.00,2944.00,794.00,467.00,244.00,308.00,171.00,73.00,APPROVED
NM: NAVAJO LAKE,02/14/2021 14:27:00,,4564.00,3023.00,829.00,484.00,253.00,322.00,178.00,74.00,APPROVED
NM: NAVAJO LAKE,02/14/2021 15:27:00,,3964.00,2480.00,689.00,386.00,215.00,264.00,148.00,66.00,APPROVED
NM: NAVAJO LAKE,02/14/2021 16:27:00,,3534.00,2094.00,587.00,309.00,184.00,220.00,127.00,59.00,APPROVED
NM: NAVAJO LAKE,02/14/2021 17:27:00,,3419.00,2013.00,558.00,289.00,173.00,209.00,121.00,57.00,APPROVED
NM: NAVAJO LAKE,02/14/2021 18:28:00,,3469.00,2048.00,566.00,295.00,180.00,213.00,121.00,57.00,APPROVED
NM: NAVAJO LAKE,02/14/2021 19:28:00,,3554.00,2127.00,591.00,314.00,184.00,225.00,128.00,58.00,APPROVED
NM: NAVAJO LAKE,02/14/2021 20:28:00,,3635.00,2176.00,605.00,325.00,188.00,230.00,129.00,59.00,APPROVED
NM: NAVAJO LAKE,02/14/2021 21:28:00,,3611.00,2174.00,610.00,324.00,190.00,230.00,131.00,58.00,APPROVED
NM: NAVAJO LAKE,02/14/2021 22:28:00,,3454.00,2041.00,578.00,300.00,180.00,217.00,122.00,58.00,APPROVED
NM: NAVAJO LAKE,02/14/2021 23:29:00,,3381.00,1972.00,554.00,286.00,175.00,209.00,117.00,57.00,APPROVED
NM: NAVAJO LAKE,02/15/2021 00:29:00,,3354.00,1953.00,545.00,279.00,169.00,202.00,117.00,55.00,APPROVED
NM: NAVAJO LAKE,02/15/2021 01:29:00,,3344.00,1958.00,542.00,279.00,171.00,203.00,119.00,55.00,APPROVED
NM: NAVAJO LAKE,02/15/2021 02:29:00,,3296.00,1902.00,529.00,272.00,170.00,194.00,113.00,54.00,APPROVED
NM: NAVAJO LAKE,02/15/2021 03:29:00,,3246.00,1866.00,523.00,260.00,163.00,192.00,112.00,55.00,APPROVED
NM: NAVAJO LAKE,02/15/2021 04:30:00,,3250.00,1861.00,516.00,262.00,163.00,194.00,115.00,55.00,APPROVED
NM: NAVAJO LAKE,02/15/2021 05:30:00,,3236.00,1847.00,513.00,263.00,164.00,191.00,114.00,53.00,APPROVED
NM: NAVAJO LAKE,02/15/2021 06:30:00,,3250.00,1857.00,515.00,262.00,165.00,191.00,111.00,53.00,APPROVED
NM: NAVAJO LAKE,02/15/2021 07:30:00,,3242.00,1851.00,517.00,264.00,161.00,191.00,115.00,53.00,APPROVED
NM: NAVAJO LAKE,02/15/2021 08:30:00,,3250.00,1842.00,515.00,261.00,164.00,192.00,113.00,54.00,APPROVED
NM: NAVAJO LAKE,02/15/2021 09:31:00,,3240.00,1852.00,512.00,259.00,161.00,191.00,110.00,54.00,APPROVED
NM: NAVAJO LAKE,02/15/2021 10:31:00,,3265.00,1866.00,517.00,264.00,162.00,189.00,111.00,55.00,APPROVED
NM: NAVAJO LAKE,02/15/2021 11:31:00,,3260.00,1870.00,516.00,264.00,166.00,194.00,113.00,51.00,APPROVED
NM: NAVAJO LAKE,02/15/2021 12:31:00,,3272.00,1880.00,520.00,262.00,164.00,191.00,113.00,54.00,APPROVED
NM: NAVAJO LAKE,02/15/2021 13:31:00,,3277.00,1881.00,526.00,265.00,165.00,196.00,113.00,54.00,APPROVED
NM: NAVAJO LAKE,02/15/2021 14:32:00,,3278.00,1872.00,514.00,263.00,166.00,190.00,112.00,54.00,APPROVED
NM: NAVAJO LAKE,02/15/2021 15:32:00,,3297.00,1876.00,517.00,268.00,165.00,192.00,113.00,54.00,APPROVED
NM: NAVAJO LAKE,02/15/2021 16:32:00,,3301.00,1888.00,522.00,267.00,167.00,194.00,116.00,54.00,APPROVED
NM: NAVAJO LAKE,02/15/2021 17:32:00,,3267.00,1867.00,520.00,266.00,165.00,192.00,114.00,53.00,APPROVED
NM: NAVAJO LAKE,02/15/2021 18:32:00,,3220.00,1845.00,517.00,264.00,163.00,194.00,114.00,56.00,APPROVED
NM: NAVAJO LAKE,02/15/2021 19:33:00,,3192.00,1821.00,515.00,264.00,163.00,193.00,116.00,54.00,APPROVED
NM: NAVAJO LAKE,02/15/2021 20:33:00,,3175.00,1841.00,512.00,266.00,164.00,194.00,113.00,56.00,APPROVED
NM: NAVAJO LAKE,02/15/2021 21:33:00,,3195.00,1826.00,513.00,266.00,163.00,191.00,118.00,55.00,APPROVED
NM: NAVAJO LAKE,02/15/2021 22:33:00,,3186.00,1838.00,515.00,263.00,163.00,191.00,117.00,56.00,APPROVED
NM: NAVAJO LAKE,02/15/2021 23:33:00,,3161.00,1812.00,509.00,261.00,163.00,191.00,113.00,54.00,APPROVED
NM: NAVAJO LAKE,02/16/2021 00:34:00,,3185.00,1826.00,510.00,262.00,164.00,192.00,114.00,56.00,APPROVED
NM: NAVAJO LAKE,02/16/2021 01:34:00,,3213.00,1847.00,516.00,264.00,165.00,193.00,115.00,55.00,APPROVED
NM: NAVAJO LAKE,02/16/2021 02:34:00,,3266.00,1899.00,520.00,270.00,166.00,198.00,117.00,56.00,APPROVED
NM: NAVAJO LAKE,02/16/2021 03:34:00,,3319.00,1939.00,535.00,282.00,171.00,202.00,121.00,57.00,APPROVED
NM: NAVAJO LAKE,02/16/2021 04:34:00,,3332.00,1962.00,544.00,289.00,169.00,204.00,121.00,56.00,APPROVED
NM: NAVAJO LAKE,02/16/2021 05:35:00,,3311.00,1933.00,537.00,280.00,169.00,200.00,121.00,56.00,APPROVED
NM: NAVAJO LAKE,02/16/2021 06:35:00,,3361.00,1964.00,543.00,283.00,170.00,205.00,120.00,58.00,APPROVED
NM: NAVAJO LAKE,02/16/2021 07:35:00,,3619.00,2197.00,589.00,321.00,186.00,223.00,128.00,59.00,APPROVED
NM: NAVAJO LAKE,02/16/2021 08:35:00,,3986.00,2521.00,678.00,385.00,207.00,259.00,144.00,64.00,APPROVED
NM: NAVAJO LAKE,02/16/2021 09:35:00,,4031.00,2561.00,685.00,392.00,212.00,268.00,147.00,64.00,APPROVED
NM: NAVAJO LAKE,02/16/2021 10:35:00,,3945.00,2473.00,669.00,377.00,204.00,258.00,144.00,63.00,APPROVED
NM: NAVAJO LAKE,02/16/2021 11:36:00,,3626.00,2200.00,612.00,334.00,189.00,233.00,129.00,61.00,APPROVED
NM: NAVAJO LAKE,02/16/2021 12:36:00,,3314.00,1918.00,530.00,284.00,161.00,200.00,116.00,56.00,APPROVED
NM: NAVAJO LAKE,02/16/2021 13:36:00,,3311.00,1925.00,530.00,275.00,166.00,199.00,114.00,55.00,APPROVED
NM: NAVAJO LAKE,02/16/2021 14:36:00,,3250.00,1877.00,517.00,268.00,159.00,193.00,112.00,53.00,APPROVED
NM: NAVAJO LAKE,02/16/2021 15:36:00,,3282.00,1917.00,525.00,277.00,163.00,196.00,113.00,55.00,APPROVED
NM: NAVAJO LAKE,02/16/2021 16:37:00,,3253.00,1858.00,517.00,267.00,159.00,193.00,113.00,54.00,APPROVED
NM: NAVAJO LAKE,02/16/2021 17:37:00,,3213.00,1844.00,504.00,264.00,154.00,189.00,112.00,54.00,APPROVED
NM: NAVAJO LAKE,02/16/2021 18:37:00,,3191.00,1815.00,497.00,261.00,158.00,186.00,110.00,54.00,APPROVED
NM: NAVAJO LAKE,02/16/2021 19:37:00,,3134.00,1791.00,493.00,250.00,157.00,184.00,110.00,53.00,APPROVED
NM: NAVAJO LAKE,02/16/2021 20:37:00,,3021.00,1723.00,479.00,248.00,150.00,179.00,108.00,54.00,APPROVED
NM: NAVAJO LAKE,02/16/2021 21:38:00,,2974.00,1676.00,472.00,239.00,148.00,174.00,104.00,53.00,APPROVED
NM: NAVAJO LAKE,02/16/2021 22:38:00,,2928.00,1651.00,467.00,230.00,145.00,173.00,104.00,51.00,APPROVED
NM: NAVAJO LAKE,02/16/2021 23:38:00,,2937.00,1646.00,465.00,233.00,148.00,171.00,105.00,51.00,APPROVED
NM: NAVAJO LAKE,02/17/2021 00:38:00,,2945.00,1654.00,461.00,235.00,146.00,171.00,104.00,51.00,APPROVED
NM: NAVAJO LAKE,02/17/2021 01:38:00,,2968.00,1667.00,463.00,234.00,145.00,171.00,103.00,52.00,APPROVED
NM: NAVAJO LAKE,02/17/2021 02:39:00,,2956.00,1665.00,461.00,233.00,145.00,169.00,99.00,50.00,APPROVED
NM: NAVAJO LAKE,02/17/2021 03:39:00,,2950.00,1655.00,462.00,230.00,146.00,170.00,101.00,51.00,APPROVED
NM: NAVAJO LAKE,02/17/2021 04:39:00,,2939.00,1650.00,458.00,232.00,148.00,174.00,103.00,51.00,APPROVED
NM: NAVAJO LAKE,02/17/2021 05:39:00,,2952.00,1664.00,464.00,235.00,145.00,171.00,102.00,51.00,APPROVED
NM: NAVAJO LAKE,02/17/2021 06:39:00,,2978.00,1672.00,468.00,235.00,145.00,172.00,100.00,51.00,APPROVED
NM: NAVAJO LAKE,02/17/2021 07:40:00,,2976.00,1676.00,468.00,234.00,144.00,175.00,101.00,52.00,APPROVED
NM: NAVAJO LAKE,02/17/2021 08:40:00,,3033.00,1725.00,473.00,242.00,150.00,175.00,103.00,52.00,APPROVED
NM: NAVAJO LAKE,02/17/2021 09:40:00,,3080.00,1748.00,483.00,247.00,151.00,180.00,105.00,53.00,APPROVED
NM: NAVAJO LAKE,02/17/2021 10:40:00,,3096.00,1750.00,487.00,248.00,152.00,180.00,105.00,53.00,APPROVED
NM: NAVAJO LAKE,02/17/2021 11:40:00,,3145.00,1797.00,492.00,253.00,155.00,183.00,109.00,52.00,APPROVED
NM: NAVAJO LAKE,02/17/2021 12:41:00,,3193.00,1827.00,500.00,253.00,156.00,188.00,107.00,52.00,APPROVED
NM: NAVAJO LAKE,02/17/2021 13:41:00,,3202.00,1832.00,502.00,257.00,152.00,190.00,109.00,52.00,APPROVED
NM: NAVAJO LAKE,02/17/2021 14:41:00,,3209.00,1840.00,499.00,256.00,157.00,186.00,108.00,53.00,APPROVED
NM: NAVAJO LAKE,02/17/2021 15:41:00,,3273.00,1878.00,513.00,265.00,159.00,191.00,111.00,55.00,APPROVED
NM: NAVAJO LAKE,02/17/2021 16:41:00,,3277.00,1875.00,515.00,266.00,161.00,191.00,109.00,53.00,APPROVED
NM: NAVAJO LAKE,02/17/2021 17:42:00,,3128.00,1760.00,488.00,249.00,154.00,182.00,104.00,51.00,APPROVED
NM: NAVAJO LAKE,02/17/2021 18:42:00,,3110.00,1748.00,485.00,245.00,152.00,177.00,108.00,51.00,APPROVED
NM: NAVAJO LAKE,02/17/2021 19:42:00,,3080.00,1751.00,487.00,246.00,157.00,179.00,107.00,52.00,APPROVED
NM: NAVAJO LAKE,02/17/2021 20:42:00,,3011.00,1714.00,478.00,245.00,149.00,179.00,108.00,52.00,APPROVED
NM: NAVAJO LAKE,02/17/2021 21:42:00,,2969.00,1693.00,475.00,242.00,147.00,180.00,106.00,52.00,APPROVED
NM: NAVAJO LAKE,02/17/2021 22:43:00,,2972.00,1688.00,481.00,249.00,149.00,177.00,109.00,52.00,APPROVED
NM: NAVAJO LAKE,02/17/2021 23:43:00,,3018.00,1713.00,480.00,246.00,150.00,177.00,107.00,53.00,APPROVED
NM: NAVAJO LAKE,02/18/2021 00:43:00,,3001.00,1706.00,478.00,241.00,147.00,174.00,106.00,53.00,APPROVED
NM: NAVAJO LAKE,02/18/2021 01:43:00,,2960.00,1667.00,472.00,236.00,148.00,176.00,103.00,53.00,APPROVED
NM: NAVAJO LAKE,02/18/2021 02:43:00,,2957.00,1656.00,466.00,237.00,149.00,175.00,104.00,51.00,APPROVED
NM: NAVAJO LAKE,02/18/2021 03:44:00,,2956.00,1682.00,465.00,239.00,147.00,174.00,105.00,52.00,APPROVED
NM: NAVAJO LAKE,02/18/2021 04:44:00,,2988.00,1679.00,468.00,236.00,148.00,170.00,101.00,53.00,APPROVED
NM: NAVAJO LAKE,02/18/2021 05:44:00,,2991.00,1684.00,464.00,234.00,150.00,174.00,103.00,51.00,APPROVED
NM: NAVAJO LAKE,02/18/2021 06:44:00,,3013.00,1688.00,470.00,241.00,146.00,174.00,105.00,50.00,APPROVED
NM: NAVAJO LAKE,02/18/2021 07:44:00,,3048.00,1724.00,470.00,239.00,149.00,175.00,104.00,51.00,APPROVED
NM: NAVAJO LAKE,02/18/2021 08:45:00,,3081.00,1713.00,479.00,238.00,147.00,176.00,97.00,54.00,APPROVED
NM: NAVAJO LAKE,02/18/2021 09:45:00,,3105.00,1728.00,477.00,237.00,151.00,176.00,95.00,52.00,APPROVED
NM: NAVAJO LAKE,02/18/2021 10:45:00,,3181.00,1775.00,494.00,247.00,152.00,185.00,98.00,52.00,APPROVED